Weather Roundup
Issued by NWS

Home | Current Version | Previous Version | Graphics & Text | Print | Product List | Glossary Off
Versions: 1 2 3 4 5 6 7 8 9 10 11 12 13 14 15 16 17 18 19 20 21 22 23 24 25 26 27 28 29 30 31 32 33 34 35 36 37 38 39 40 41 42 43 44 45 46 47 48 49 50

000
NZUS93 KARX 271310
HRRWXR

CURRENT HOURLY OBSERVATIONS ACROSS
MUCH OF THE UPPER MISSISSIPPI VALLEY
NATIONAL WEATHER SERVICE LA CROSSE WI
800 AM CDT WED JUL 27 2016


...SOUTHEAST MINNESOTA...


CITY           SKY/WX    TMP DP  RH WIND       PRES   REMARKS
ROCHESTER      SUNNY     69  67  93 S5        30.03R
ROCHESTER/MAYO FAIR      70  66  87 SE5       30.02S
WINONA         MOSUNNY   73  70  88 CALM      30.00S
AUSTIN         MOSUNNY   70  64  83 S3        30.03R
ALBERT LEA     PTSUNNY   72  66  83 CALM      30.02R
DODGE CENTER   MOSUNNY   72  68  88 S3        30.02S
PRESTON        MOSUNNY   69  65  85 S3        30.04S
OWATONNA       CLOUDY    72  64  78 S5        30.01R
FARIBAULT      CLOUDY    72  66  83 SE3       30.00R
$$

...ELSEWHERE IN MINNESOTA...


CITY           SKY/WX    TMP DP  RH WIND       PRES   REMARKS
MINNEAPOLIS    CLOUDY    76  67  73 S6        29.98R
INTNL FALLS    CLOUDY    66  57  72 NE6       30.04R
DULUTH         CLOUDY    66  58  75 E12       30.00S
RED WING       CLOUDY    75  68  78 CALM      29.97S
REDWOOD FALLS  CLOUDY    72  66  81 SW5       29.95R
MANKATO        CLOUDY    70  63  78 SE8       29.98S
WORTHINGTON    PTSUNNY   70  66  87 CALM      29.99S
FAIRMONT       CLOUDY    70  64  83 SE7       29.99R
$$

...SOUTHWEST WISCONSIN...


CITY           SKY/WX    TMP DP  RH WIND       PRES   REMARKS
LA CROSSE      MOSUNNY   75  70  84 S5        30.00S
PRAIRIE DU CHI MOSUNNY   70  67  91 CALM      30.02R
BOSCOBEL       FOG       69  67  93 CALM      30.02S VSB 1/4
LONE ROCK      FOG       67  67 100 CALM      30.03S VSB 3/4
PLATTEVILLE    SUNNY     72  70  92 CALM      30.04R
FORT MC COY    PTSUNNY   68  66  94 CALM      30.02S
CAMP DOUGLAS   PTSUNNY   72  70  94 CALM      30.02R
MAUSTON-NEW LI MOSUNNY   75  69  82 W6        30.02R
VIROQUA        FAIR      73  68  86 CALM      30.04R
WIS DELLS      SUNNY     73  67  81 S5        30.03R
$$

...ELSEWHERE IN WISCONSIN...


CITY           SKY/WX    TMP DP  RH WIND       PRES   REMARKS
MILWAUKEE      MOSUNNY   80  66  62 W5        30.00F
MADISON        PTSUNNY   75  67  76 CALM      30.02S
GREEN BAY      MOSUNNY   74  69  85 SW5       29.99R
EAU CLAIRE     CLOUDY    74  68  81 S3        29.98F
BLACK RVR FLS  FAIR      71  71  98 CALM      30.01S
MEDFORD        CLOUDY    68  68 100 N7        30.03R
WAUSAU         CLOUDY    71  67  87 CALM      30.01R
WIS RAPIDS     MOSUNNY   75  67  76 W5        30.03R
MARSHFIELD     PTSUNNY   75  68  78 W7        30.01S
RICE LAKE      CLOUDY    69  63  82 E5        30.01S
$$

...NORTHEAST IOWA...


CITY           SKY/WX    TMP DP  RH WIND       PRES   REMARKS
WATERLOO       MOSUNNY   71  67  87 E3        30.01R
DUBUQUE        SUNNY     74  65  73 CALM      30.04S
DECORAH        PTSUNNY   70  68  94 CALM      30.02S
MASON CITY     SUNNY     69  66  90 CALM      30.04R
CHARLES CITY   MOSUNNY   68  68 100 CALM      30.04R
OELWEIN        NOT AVBL
$$

...ELSEWHERE IN IOWA...


CITY           SKY/WX    TMP DP  RH WIND       PRES   REMARKS
DES MOINES     MOSUNNY   74  66  76 SE5       29.98F
IOWA CITY      MOSUNNY   73  68  84 SE3       30.02S
FORT DODGE     MOSUNNY   70  64  83 CALM      30.01R
MARSHALLTOWN   MOSUNNY   69  67  93 CALM      30.02R
CEDAR RAPIDS   PTSUNNY   72  71  97 CALM      30.01S
$$

...NORTHERN ILLINOIS...


CITY           SKY/WX    TMP DP  RH WIND       PRES   REMARKS
CHICAGO-OHARE  MOSUNNY   76  66  71 CALM      30.02S
CHICAGO-MIDWAY MOSUNNY   77  66  68 CALM      30.02S
MOLINE         SUNNY     73  67  81 E3        30.01F
ROCKFORD       PTSUNNY   72  60  66 S3        30.03F
PEORIA         SUNNY     76  68  76 S3        30.02F
$$

NOTE: "FAIR" INDICATES FEW OR NO CLOUDS BELOW 12,000 FEET WITH NO
SIGNIFICANT WEATHER AND/OR OBSTRUCTIONS TO VISIBILITY. WIND
SPEEDS ARE IN MILES-PER-HOUR.




USA.gov is the U.S. government's official web portal to all federal, state and local government web resources and services.